This is the latest recevied weather packets stored in our database for station/object WB9YJT. If no packets are shown the sender has not sent any weather packets the latest 1 day(s).
| Time | Temp. | Humidity | Pressure | Rain* | Wind** | Luminosity | Snow |
|---|---|---|---|---|---|---|---|
| 1778087012 | 11.67° C | 39% | - | 0 mm | - | - | - |
| 1778085494 | 11.67° C | 41% | - | 0 mm | - | - | - |
| 1778082766 | 11.11° C | 39% | - | 0 mm | - | - | - |
| 1778079518 | 10.56° C | 45% | - | 0 mm | - | - | - |
| 1778076190 | 11.11° C | 44% | - | 0 mm | - | - | - |
| 1778075583 | 10° C | 44% | - | 0 mm | - | - | - |
| 1778075280 | 10.56° C | 48% | - | 0 mm | - | - | - |
| 1778074067 | 9.44° C | 50% | - | 0 mm | - | - | - |
| 1778073159 | 8.89° C | 49% | - | 0 mm | - | - | - |
| 1778072855 | 8.89° C | 51% | - | 0 mm | - | - | - |
| 1778072552 | 8.89° C | 54% | - | 0 mm | - | - | - |
| 1778072250 | 8.33° C | 55% | - | 0 mm | - | - | - |
| 1778071646 | 7.78° C | 60% | - | 0 mm | - | - | - |
| 1778070740 | 7.22° C | 66% | - | 0 mm | - | - | - |
| 1778070133 | 6.67° C | 68% | - | 0 mm | - | - | - |
| 1778069527 | 6.67° C | 69% | - | 0 mm | - | - | - |
| 1778069225 | 6.11° C | 70% | - | 0 mm | - | - | - |
| 1778068922 | 6.11° C | 70% | - | 0 mm | - | - | - |
| 1778068015 | 5° C | 72% | - | 0 mm | - | - | - |
| 1778066804 | 4.44° C | 76% | - | 0 mm | - | - | - |
| 1778066502 | 4.44° C | 75% | - | 0 mm | - | - | - |
| 1778065897 | 4.44° C | 75% | - | 0 mm | - | - | - |
| 1778064988 | 3.89° C | 75% | - | 0 mm | - | - | - |
| 1778064685 | 3.89° C | 75% | - | 0 mm | - | - | - |
| 1778061358 | 5° C | 70% | - | 0 mm | - | - | - |
* Rain latest hour (hover to see other rain measurements)
** Current wind speed in m/s (hover to see current wind gust speed)